Wind_Speed
2 4 4 3 2 4 5 1 4 7 8 8 15 16 19 8 6 2 22 26 24 22 22 20 20 18 16 13 12 12 11 11 10 10 12 12 11 10 9 7 6 7 7 7 8 9 9 9 9
3 4 2 2 5 0 6 6 11 12 8 15 18 16 16 16 5 13 25 26 24 21 21 19 17 14 13 12 11 12 11 9 9 10 9 8 9 7 6 6 6 6 7 8 10 11 12 12 11
4 3 3 2 5 1 6 13 15 12 9 18 17 15 11 11 2 19 21 24 25 21 20 18 15 13 13 12 11 11 9 8 7 7 7 7 7 7 7 7 7 7 8 9 12 13 14 15 13
3 0 3 2 1 3 7 9 14 11 15 13 10 8 9 13 11 20 21 22 23 21 19 17 13 12 12 11 9 9 8 8 6 6 6 7 7 7 6 7 6 6 7 10 13 14 16 14 12
4 1 2 6 8 5 10 15 13 15 16 14 11 6 11 13 20 19 20 21 21 20 18 16 14 12 10 9 8 8 8 7 6 5 6 7 7 7 7 7 7 6 7 10 14 16 17 14 13
3 2 3 6 5 6 14 19 15 14 13 11 10 6 12 14 24 21 20 20 20 17 17 17 15 13 11 10 9 8 7 6 5 5 6 8 9 9 9 8 7 7 10 13 16 18 18 15 17
3 5 5 5 1 3 16 19 15 13 9 8 7 7 11 25 25 21 21 20 21 20 17 16 14 13 11 10 9 8 7 7 6 5 7 11 12 12 11 10 9 11 13 15 19 18 16 14 13
7 12 16 8 2 7 14 17 15 12 10 5 7 8 20 33 27 24 23 22 22 20 17 15 13 11 11 10 9 8 8 8 8 8 10 14 16 14 12 13 14 15 15 18 18 17 16 14 10
9 6 10 12 14 6 6 14 19 14 6 4 6 6 28 30 28 25 25 24 23 21 18 15 13 12 10 9 9 9 9 10 9 9 12 16 16 15 15 15 18 19 17 18 16 15 14 12 10
8 9 9 9 11 15 2 7 1 9 6 12 9 23 33 29 26 24 23 22 22 20 18 16 13 11 9 10 9 10 10 10 12 11 12 15 15 15 14 15 18 20 19 17 17 16 14 12 9
9 8 3 7 13 11 13 11 15 12 15 15 5 24 27 27 24 21 20 18 18 19 18 16 13 11 10 9 9 11 10 11 11 12 12 13 14 15 15 15 16 18 19 16 15 15 15 12 10
9 7 3 8 12 13 11 11 3 15 15 16 10 14 22 25 22 21 20 19 19 18 17 16 14 11 10 9 9 10 9 9 9 11 11 12 13 14 14 14 13 14 15 16 17 14 13 12 11
14 4 0 4 10 15 9 6 7 9 21 9 17 18 24 26 22 21 19 19 18 18 16 16 14 12 9 8 9 9 7 7 9 9 10 10 12 11 10 9 10 10 12 14 14 13 11 13 11
10 7 2 1 6 2 2 5 7 7 8 5 13 16 21 27 23 23 21 17 19 18 16 15 13 12 9 8 9 8 7 9 9 9 10 10 8 7 6 7 7 8 7 6 8 10 11 13 9
8 6 3 1 4 5 5 2 6 9 13 10 10 17 25 28 25 21 18 14 13 16 14 14 13 11 10 9 9 10 9 8 7 8 9 9 7 5 6 6 5 5 5 3 4 10 10 8 7
8 8 3 2 6 4 6 4 5 11 12 8 9 17 24 32 26 22 17 13 11 13 15 16 14 12 11 9 9 11 11 10 9 9 10 10 9 8 7 5 6 5 8 8 9 7 9 7 7
9 7 5 4 9 2 3 5 14 25 7 12 10 14 23 28 29 26 19 15 10 11 12 13 13 11 13 10 12 14 11 10 10 10 10 8 8 7 6 7 6 6 6 7 8 6 6 7 6
10 9 8 10 8 3 5 6 16 7 12 12 13 13 20 26 29 25 21 18 15 12 10 8 9 10 14 12 14 14 12 12 10 10 9 7 6 5 7 6 5 6 7 7 8 8 7 6 6
11 9 11 7 2 4 5 5 18 15 12 12 12 11 15 24 26 25 20 19 19 15 12 7 6 8 13 13 13 11 8 8 8 8 7 6 6 5 4 6 6 4 9 9 8 8 7 3 4
14 11 9 6 4 4 4 8 9 18 19 14 12 14 14 20 30 28 25 21 22 18 13 10 7 6 8 11 13 13 13 10 11 9 7 6 7 6 5 6 7 7 9 9 7 10 6 5 4
16 15 9 6 3 3 5 5 7 16 23 22 15 16 19 19 27 29 29 24 21 21 17 11 7 5 9 11 14 14 15 14 13 9 6 7 8 7 5 5 5 6 8 10 8 9 8 7 4
18 17 12 7 1 3 6 3 2 17 23 23 18 16 22 21 24 31 27 26 23 20 16 14 8 4 6 11 12 13 13 11 11 9 10 9 10 7 5 3 3 4 4 6 10 12 9 7 5
12 7 10 6 4 3 2 1 5 8 17 18 15 18 23 19 23 26 33 30 22 21 19 17 13 9 6 9 11 12 15 12 13 10 12 10 8 6 5 4 3 2 3 2 5 8 9 8 7
8 6 4 5 4 2 4 3 7 5 8 12 20 24 25 24 19 23 27 34 29 23 22 21 17 12 10 8 11 13 13 14 16 14 12 11 9 8 7 5 4 2 2 1 2 5 9 9 9
14 12 4 2 3 5 15 8 10 6 4 7 10 11 20 27 25 21 22 28 31 27 26 23 21 18 13 10 12 13 12 13 15 18 14 14 10 8 8 8 6 5 5 3 2 1 3 9 11
13 16 6 5 5 6 13 10 6 7 8 5 5 7 8 18 28 27 21 23 24 27 26 24 23 21 17 15 13 15 15 14 14 18 17 16 13 12 12 10 10 8 5 4 2 2 3 5 12
13 12 13 8 7 6 6 5 6 3 2 1 4 5 13 14 23 28 26 22 24 25 27 24 22 20 19 16 14 15 16 16 15 17 19 16 15 16 15 12 12 11 8 7 5 4 4 5 6
16 13 10 9 4 3 4 7 6 2 1 3 0 3 10 19 18 24 30 25 23 23 24 24 22 20 17 17 16 15 16 17 16 18 19 18 17 18 17 15 14 13 11 10 8 7 6 5 6
12 13 8 12 6 6 4 3 5 5 3 3 4 5 6 17 19 19 22 27 26 24 24 26 25 24 23 21 18 18 19 19 20 20 20 19 19 21 20 19 17 16 14 13 11 10 9 8 8
8 11 12 13 7 6 6 6 4 2 2 4 5 5 6 8 18 21 21 24 26 29 30 27 26 26 24 22 21 20 20 21 23 22 21 21 21 21 20 21 19 18 18 16 14 13 11 10 10
Wind_Direction
239 198 195 215 228 223 285 223 140 142 151 138 157 157 154 139 122 150 152 156 154 150 141 144 144 144 141 137 138 146 147 136 127 120 115 116 116 114 115 115 119 133 142 152 159 162 150 139 124
203 197 173 275 287 121 246 197 143 136 142 148 154 155 156 158 29 150 156 153 156 153 145 144 139 142 147 145 141 137 134 122 113 112 114 98 94 100 106 106 108 115 121 135 142 147 145 138 127
204 223 285 358 20 63 137 128 151 150 156 150 139 163 171 176 22 153 153 155 155 157 151 146 137 132 135 135 136 135 130 118 114 119 110 106 107 106 107 108 102 109 117 133 137 137 136 136 127
210 245 9 336 34 266 183 171 159 175 175 178 170 154 177 161 147 152 153 157 156 158 153 149 141 135 135 135 137 128 124 118 119 122 126 127 131 122 121 113 107 115 130 135 140 137 135 129 123
129 125 344 328 317 236 197 187 183 189 188 194 187 173 148 157 153 156 153 155 155 155 153 147 142 140 139 137 128 127 131 124 131 138 143 143 141 135 130 119 108 114 133 136 141 139 130 125 114
103 351 325 5 61 164 183 171 166 181 198 212 220 182 173 169 160 157 154 153 150 154 150 143 141 142 142 134 126 128 128 125 129 136 146 146 140 128 113 97 95 112 126 133 140 136 133 124 123
107 36 41 63 88 211 197 180 178 184 201 225 223 216 178 162 161 159 155 153 150 149 146 143 145 144 142 130 127 129 121 120 104 102 132 138 135 121 111 101 96 110 117 125 133 133 131 133 127
103 85 63 66 185 262 186 200 193 197 193 227 229 229 181 161 161 161 157 157 153 149 148 146 147 147 140 132 129 125 114 110 90 89 122 130 127 120 110 100 100 105 114 121 131 136 133 128 125
118 104 85 66 49 4 247 238 192 188 181 180 175 196 171 162 163 165 162 162 158 154 151 149 153 149 146 135 128 118 116 103 86 91 120 127 125 119 114 106 106 110 114 120 127 133 136 135 129
129 108 94 64 34 24 290 258 188 185 201 161 135 154 164 167 167 170 167 166 161 157 153 151 155 149 147 134 128 121 122 108 86 97 118 122 120 117 116 112 108 110 114 120 125 129 130 128 119
147 121 109 31 20 11 22 45 261 243 199 168 166 172 177 172 169 170 166 162 160 160 157 155 155 155 150 137 130 130 126 111 96 94 117 124 121 116 116 115 107 109 116 122 125 131 130 117 105
168 136 42 13 352 349 343 341 194 176 222 191 172 197 189 178 174 171 172 169 170 163 163 158 159 162 153 148 135 141 137 121 108 97 114 126 126 124 114 112 101 116 117 118 118 114 119 114 108
188 147 309 1 322 320 322 353 133 168 187 198 139 176 193 179 176 168 171 174 177 173 170 162 166 167 163 155 143 149 146 135 131 110 120 127 130 130 124 116 101 121 126 123 126 123 112 115 105
191 199 185 282 303 50 74 56 86 128 179 207 145 159 190 178 176 176 175 175 173 175 175 173 174 176 167 161 153 158 148 144 129 114 129 135 149 128 140 137 119 127 137 106 101 117 113 107 106
188 213 241 11 83 87 154 77 99 158 189 227 160 163 181 180 181 181 173 157 165 175 179 182 184 185 176 172 164 165 159 159 139 126 134 146 149 145 159 148 152 161 177 152 116 120 110 117 108
201 191 134 78 86 141 178 67 67 158 160 194 176 172 174 187 194 190 170 150 160 178 181 186 190 192 188 180 177 174 162 162 152 140 141 132 122 133 155 168 183 160 159 149 119 105 122 125 123
185 171 162 130 140 80 200 116 128 96 139 205 200 174 174 183 192 188 175 160 155 153 163 182 198 199 187 189 182 176 183 178 169 164 149 138 134 136 134 156 180 178 157 150 158 136 127 167 152
180 172 134 127 148 203 264 236 205 206 127 157 193 189 175 183 190 184 176 163 164 155 156 176 197 188 180 183 191 191 185 190 177 167 161 160 149 130 141 167 166 186 188 196 165 146 141 147 177
184 186 172 144 90 326 265 274 228 244 210 179 192 203 196 186 189 184 181 172 167 175 167 161 188 197 183 186 188 201 199 194 179 169 163 157 158 156 144 154 163 157 184 177 190 178 164 168 194
211 217 209 203 183 334 271 287 248 230 226 219 212 201 210 195 200 189 192 190 182 175 174 175 179 195 202 201 193 196 211 199 189 183 172 167 165 165 161 124 105 150 176 188 199 194 177 190 197
221 227 209 198 277 47 22 301 239 209 220 219 212 206 210 213 205 201 201 202 193 183 181 181 175 186 211 205 200 200 198 198 198 194 189 187 185 178 152 118 91 99 147 186 187 175 178 175 139
226 226 199 181 306 3 358 325 282 216 220 225 220 214 210 206 215 217 212 211 203 198 183 174 195 171 225 208 203 204 200 210 207 192 193 186 181 168 141 151 103 89 129 175 186 180 186 191 166
220 186 204 228 247 284 327 343 9 228 225 229 234 231 219 214 213 221 219 220 215 205 193 186 190 210 242 227 208 208 205 206 206 202 196 188 183 181 189 171 159 152 104 119 204 194 196 209 207
192 214 216 203 173 193 187 167 31 320 312 278 270 251 235 227 222 227 223 221 221 215 202 194 193 203 227 242 224 216 212 213 214 213 212 209 201 196 194 205 206 173 158 53 193 193 214 208 196
209 208 151 96 142 193 151 157 49 40 15 337 265 234 240 237 227 237 227 215 218 215 210 203 197 201 212 235 237 224 218 223 225 224 218 222 214 199 198 205 210 197 188 179 117 147 190 202 207
207 214 185 158 171 170 164 159 62 53 40 359 308 241 208 218 235 236 238 224 218 217 217 206 199 203 208 225 238 233 222 219 225 222 223 223 220 207 206 205 212 214 218 212 180 144 168 199 207
192 193 201 112 112 130 175 144 179 162 199 217 60 206 211 222 223 234 241 228 214 206 209 205 199 202 210 215 226 240 230 223 224 232 225 220 224 226 214 202 202 210 219 229 213 204 206 207 204
202 179 157 165 129 146 93 61 13 32 98 105 172 37 212 220 213 219 228 237 225 206 207 202 202 205 200 215 220 235 243 231 224 230 233 232 228 225 229 216 204 208 212 227 228 225 217 220 222
156 169 155 163 160 151 127 107 40 21 20 356 2 350 316 227 220 220 219 230 228 218 207 209 211 213 204 202 213 229 237 240 231 228 231 233 232 232 232 230 215 206 215 225 228 231 231 224 231
106 90 156 172 174 141 127 140 155 104 16 348 312 302 322 283 227 213 213 225 236 230 227 219 218 219 215 211 214 225 235 239 238 231 233 232 234 235 236 228 227 217 218 221 229 231 234 228 234
Height
3150 3151 3152 3152 3155 3151 3148 3151 3151 3152 3154 3155 3157 3161 3164 3164 3167 3172 3170 3175 3180 3184 3185 3189 3191 3195 3197 3199 3200 3201 3202 3203 3203 3204 3205 3204 3203 3204 3204 3204 3205 3205 3205 3205 3206 3207 3209 3210 3211
3151 3152 3153 3151 3149 3147 3146 3151 3153 3154 3156 3156 3158 3162 3165 3167 3167 3168 3171 3175 3181 3185 3188 3191 3194 3196 3198 3200 3201 3202 3203 3204 3205 3205 3205 3205 3205 3205 3205 3205 3206 3206 3206 3206 3207 3208 3210 3212 3214
3151 3153 3154 3152 3152 3150 3149 3152 3154 3156 3159 3159 3161 3165 3166 3168 3169 3171 3174 3177 3182 3186 3190 3193 3195 3197 3200 3201 3203 3204 3205 3205 3205 3206 3206 3206 3206 3207 3207 3207 3207 3207 3208 3208 3209 3210 3212 3214 3215
3152 3154 3154 3154 3154 3155 3153 3155 3155 3158 3160 3163 3164 3166 3168 3170 3171 3174 3177 3181 3184 3188 3191 3195 3197 3198 3200 3202 3204 3204 3205 3206 3206 3207 3207 3207 3208 3209 3209 3208 3208 3209 3209 3210 3211 3212 3214 3217 3217
3153 3152 3153 3153 3153 3154 3154 3154 3156 3159 3160 3162 3164 3166 3169 3171 3173 3176 3179 3183 3187 3190 3193 3196 3198 3200 3202 3204 3204 3206 3207 3207 3208 3208 3209 3209 3210 3210 3210 3210 3211 3210 3210 3211 3212 3214 3216 3218 3219
3153 3153 3152 3152 3153 3154 3154 3155 3157 3159 3162 3164 3165 3166 3169 3171 3175 3178 3181 3185 3189 3193 3195 3197 3200 3201 3203 3206 3207 3208 3209 3209 3209 3209 3209 3210 3211 3212 3212 3213 3212 3211 3211 3212 3214 3217 3219 3221 3222
3153 3152 3152 3152 3153 3154 3155 3157 3157 3160 3162 3163 3164 3166 3169 3171 3176 3180 3183 3187 3190 3193 3197 3199 3201 3202 3205 3207 3209 3210 3211 3211 3212 3211 3210 3211 3213 3214 3214 3214 3214 3213 3214 3215 3217 3220 3222 3223 3224
3152 3153 3153 3152 3150 3154 3155 3157 3158 3159 3161 3162 3164 3165 3168 3171 3176 3180 3184 3188 3191 3195 3198 3201 3203 3205 3206 3208 3210 3211 3212 3213 3213 3212 3212 3213 3214 3216 3216 3216 3215 3215 3217 3218 3220 3222 3224 3226 3227
3153 3155 3155 3156 3155 3155 3156 3150 3141 3158 3160 3161 3162 3163 3169 3172 3176 3181 3184 3188 3192 3195 3198 3201 3204 3206 3208 3210 3212 3213 3214 3215 3215 3215 3215 3215 3216 3218 3218 3219 3218 3219 3220 3222 3224 3226 3227 3228 3229
3154 3155 3156 3157 3158 3156 3155 3153 3151 3159 3159 3161 3165 3166 3171 3175 3178 3182 3185 3189 3193 3196 3199 3202 3205 3207 3210 3212 3213 3214 3216 3217 3217 3217 3218 3219 3219 3220 3221 3222 3222 3223 3223 3225 3226 3228 3230 3231 3232
3154 3155 3157 3157 3158 3158 3157 3155 3154 3158 3159 3163 3167 3170 3173 3177 3180 3184 3188 3192 3196 3198 3201 3204 3206 3208 3211 3213 3215 3216 3217 3219 3219 3219 3221 3222 3223 3223 3224 3225 3225 3226 3227 3228 3230 3231 3232 3234 3235
3154 3156 3157 3158 3158 3158 3158 3158 3156 3160 3160 3164 3168 3173 3175 3178 3182 3185 3189 3192 3196 3199 3202 3204 3207 3209 3212 3214 3216 3218 3219 3220 3221 3222 3223 3224 3226 3226 3226 3227 3228 3229 3230 3231 3233 3233 3234 3235 3236
3153 3156 3157 3158 3158 3157 3158 3160 3158 3157 3158 3161 3167 3172 3176 3180 3184 3187 3191 3193 3196 3200 3203 3206 3208 3211 3214 3215 3217 3219 3220 3221 3223 3224 3225 3226 3228 3229 3229 3230 3230 3232 3233 3234 3236 3236 3237 3237 3238
3152 3154 3157 3157 3157 3158 3159 3161 3159 3160 3160 3163 3168 3171 3176 3180 3184 3187 3190 3193 3196 3200 3203 3207 3209 3212 3215 3217 3218 3220 3222 3224 3225 3226 3227 3228 3229 3231 3231 3232 3233 3234 3234 3236 3237 3239 3238 3239 3240
3152 3154 3156 3156 3156 3158 3161 3161 3160 3160 3162 3164 3168 3172 3176 3180 3184 3188 3192 3194 3197 3200 3203 3207 3209 3212 3215 3218 3219 3221 3223 3225 3227 3228 3228 3229 3231 3232 3233 3234 3234 3236 3236 3238 3239 3241 3241 3241 3242
3151 3154 3156 3156 3157 3160 3162 3164 3163 3162 3164 3163 3167 3171 3174 3180 3185 3189 3192 3193 3196 3199 3202 3207 3209 3212 3215 3218 3220 3222 3224 3227 3228 3229 3230 3231 3232 3234 3235 3236 3236 3238 3239 3240 3241 3242 3242 3243 3244
3151 3152 3155 3156 3157 3160 3163 3164 3163 3162 3165 3167 3166 3170 3173 3179 3183 3188 3191 3194 3197 3199 3202 3206 3209 3212 3215 3218 3220 3223 3225 3227 3229 3231 3231 3232 3233 3235 3236 3237 3238 3239 3240 3241 3243 3244 3244 3244 3245
3149 3152 3154 3155 3159 3160 3161 3163 3164 3165 3166 3164 3166 3168 3173 3177 3182 3186 3190 3193 3197 3200 3203 3206 3209 3211 3214 3217 3220 3223 3226 3228 3230 3231 3232 3232 3234 3236 3237 3238 3239 3240 3242 3243 3244 3245 3246 3246 3247
3149 3151 3154 3156 3157 3158 3158 3160 3162 3164 3166 3164 3165 3168 3171 3176 3182 3186 3191 3194 3196 3200 3203 3206 3209 3212 3215 3217 3221 3223 3226 3229 3230 3231 3233 3233 3234 3236 3238 3239 3240 3242 3243 3244 3245 3246 3247 3247 3249
3148 3150 3153 3155 3156 3156 3157 3157 3157 3159 3165 3167 3167 3169 3170 3175 3179 3183 3188 3192 3195 3199 3202 3206 3209 3212 3215 3218 3221 3223 3226 3228 3230 3231 3233 3234 3236 3237 3239 3239 3240 3242 3243 3246 3246 3247 3248 3249 3250
3145 3147 3151 3154 3154 3154 3154 3155 3155 3156 3160 3165 3167 3168 3170 3172 3176 3181 3185 3190 3194 3197 3201 3205 3209 3212 3215 3217 3220 3222 3225 3227 3230 3231 3232 3235 3237 3239 3239 3240 3240 3242 3243 3245 3246 3247 3249 3250 3250
3142 3146 3150 3152 3153 3153 3154 3156 3153 3155 3156 3161 3166 3168 3168 3171 3174 3178 3182 3187 3191 3197 3201 3204 3208 3211 3213 3216 3219 3222 3225 3228 3231 3232 3233 3235 3237 3238 3239 3240 3241 3242 3244 3245 3247 3248 3249 3251 3252
3142 3146 3149 3151 3152 3154 3154 3156 3156 3155 3157 3159 3163 3165 3167 3169 3171 3174 3177 3183 3190 3195 3199 3203 3206 3209 3212 3214 3218 3221 3224 3227 3229 3231 3233 3235 3236 3238 3240 3240 3242 3243 3244 3246 3247 3248 3249 3251 3252
3141 3144 3146 3148 3151 3153 3153 3156 3157 3158 3159 3160 3161 3162 3164 3166 3168 3170 3176 3181 3186 3192 3195 3200 3203 3207 3210 3213 3216 3220 3223 3226 3228 3230 3233 3235 3236 3238 3239 3240 3242 3243 3243 3245 3247 3247 3249 3250 3252
3137 3141 3144 3150 3152 3152 3152 3155 3159 3156 3155 3155 3155 3156 3160 3163 3165 3167 3170 3175 3181 3186 3191 3196 3200 3204 3208 3211 3214 3218 3221 3224 3227 3230 3232 3234 3236 3238 3239 3241 3242 3243 3244 3245 3246 3246 3247 3249 3251
3134 3137 3139 3145 3151 3148 3150 3151 3154 3154 3153 3152 3151 3153 3154 3158 3163 3165 3168 3173 3178 3183 3188 3193 3197 3201 3205 3209 3213 3216 3218 3222 3225 3228 3230 3232 3235 3237 3238 3239 3240 3242 3243 3244 3245 3246 3247 3249 3250
3130 3133 3137 3139 3141 3144 3147 3150 3150 3150 3150 3149 3149 3150 3151 3154 3158 3162 3165 3169 3176 3180 3185 3190 3195 3199 3203 3207 3210 3214 3216 3219 3223 3226 3228 3230 3233 3235 3236 3237 3239 3240 3242 3243 3245 3246 3247 3248 3249
3127 3131 3135 3136 3143 3145 3147 3149 3150 3147 3148 3148 3148 3149 3149 3150 3152 3156 3162 3166 3172 3177 3183 3188 3192 3197 3201 3206 3208 3211 3214 3217 3220 3223 3226 3229 3231 3233 3234 3235 3237 3238 3240 3242 3243 3245 3246 3247 3247
3126 3128 3130 3134 3136 3139 3148 3152 3151 3148 3147 3147 3146 3147 3147 3147 3150 3154 3158 3163 3169 3176 3178 3183 3187 3192 3195 3200 3204 3208 3210 3214 3216 3219 3223 3226 3229 3230 3232 3233 3235 3236 3238 3240 3242 3243 3244 3245 3246
3126 3127 3128 3130 3136 3136 3140 3150 3148 3148 3148 3147 3145 3146 3146 3146 3146 3150 3153 3159 3164 3169 3174 3179 3183 3187 3192 3196 3200 3203 3207 3209 3212 3215 3219 3223 3225 3227 3229 3230 3232 3234 3236 3237 3239 3241 3242 3243 3244